Regional Weather Roundup
Issued by NWS

Home | Current Version | Previous Version | Text Only | Print | Product List | Glossary Off
Versions: 1 2 3 4 5 6 7 8 9 10 11 12 13 14 15 16 17 18 19 20 21 22 23 24 25 26 27 28 29 30 31 32 33 34 35 36 37 38 39 40 41 42 43 44 45 46 47 48 49 50

000
ASUS43 KIND 281109
RWRIN

WEATHER ROUNDUP FOR INDIANA
NATIONAL WEATHER SERVICE INDIANAPOLIS IN
700 AM EDT SAT MAR 28 2015

NOTE: "FAIR" INDICATES FEW OR NO CLOUDS BELOW 12,000 FEET WITH NO
SIGNIFICANT WEATHER AND/OR OBSTRUCTIONS TO VISIBILITY.

* - STATION DOES NOT REPORT WEATHER SUCH AS PRECIPITATION OR FOG.

+ - STATION NOT QUALITY CONTROLLED BY THE NATIONAL WEATHER SERVICE.
    USE DATA WITH CAUTION...ESPECIALLY DEWPOINT AND RELATIVE
    HUMIDITY OBSERVATIONS.

INZ001>003-010>013-019-020-281200-
NORTHWEST INDIANA

CITY           SKY/WX    TMP DP  RH WIND       PRES   REMARKS
GARY /AIRPORT/ CLEAR     25   9  50 NE12      30.26R WCI  14
KNOX *+          N/A     14   1  57 N5        30.24R WCI   6
LA PORTE +     PTCLDY    15   7  69 N6        30.25R WCI   7
MICHIGAN CITY+ CLEAR     16   7  67 CALM      30.27R
MONTICELLO +   CLEAR     17  11  77 N5        30.24R WCI  10
RENSSELAER +   CLEAR     19  18  93 N3        30.25R
VALPARAISO     CLEAR     14   6  70 NE3       30.25R

$$

LMZ046-743>745-281200-
SOUTHERN LAKE MICHIGAN

STATION/POSITION TIME  TEMP WIND        PRES
                       AIR  DIR/SP/G
                 (UTC) (F)  (DEG/KT/KT) (MB)
BURNS HARBOR     1100   21  100/  6/  8 1025.1R
MICHIGAN CITY    1100   18   60/  5/  6   N/A

$$

INZ004-005-014>016-021>024-281200-
NORTH CENTRAL INDIANA

CITY           SKY/WX    TMP DP  RH WIND       PRES   REMARKS
GOSHEN         CLEAR     14   7  73 N5        30.23R WCI   6
LOGANSPORT +   CLEAR     18  14  86 N7        30.24R WCI   8
PERU/GRISSOM   CLEAR     17  11  78 N7        30.21R WCI   7
ROCHESTER +    CLEAR     19  14  79 CALM      30.24R
SOUTH BEND     CLEAR     12   5  73 N5        30.25R WCI   4
WARSAW +       CLEAR     14  10  85 CALM      30.23R

$$

INZ006>009-017-018-025>027-281200-
NORTHEAST INDIANA

CITY           SKY/WX    TMP DP  RH WIND       PRES   REMARKS
ANGOLA *+      CLEAR     12   7  79 CALM      30.21R
AUBURN +       CLEAR     18  10  73 CALM      30.23R
FORT WAYNE     PTCLDY    17  10  74 NE8       30.23R WCI   7
HUNTINGTON +   CLEAR     17   9  71 CALM      30.22R

$$

INZ028-029-035-036-043>045-051>053-281200-
WEST CENTRAL INDIANA

CITY           SKY/WX    TMP DP  RH WIND       PRES   REMARKS
CRAWFORDSVL +  CLEAR     16  10  77 MISG      30.22R
GREENCASTLE +  CLEAR     19  12  73 N3        30.21S
LAFAYETTE      CLEAR     16  12  84 N7        30.24R WCI   6
TERRE HAUTE    CLEAR     20  14  77 N5        30.24R WCI  13

$$

INZ030>032-037>040-046>048-054>057-064-065-281200-
CENTRAL INDIANA

CITY           SKY/WX    TMP DP  RH WIND       PRES   REMARKS
CP ATTERBURY + CLEAR     19  16  86 CALM      30.22R
FRANKFORT +    CLEAR     18  15  88 NW6       30.23R WCI  10
GREENWOOD *+   CLEAR     19  12  73 N6        30.21R WCI  11
INDIANAPOLIS   PTCLDY    18  12  77 N8        30.20R WCI   8
-EAGLE CREEK   CLEAR     19  13  77 N8        30.20R WCI   9
KOKOMO *+        N/A     18  12  79 N7        30.22R WCI   8
MARION +       CLEAR     18  13  80 N6        30.21R WCI   9
MT COMFORT *+  CLEAR     19   9  63 N6        30.21R WCI  11
SHELBYVILLE    CLEAR     20  14  77 N7        30.20R WCI  11
ZIONSVILLE +   CLEAR     18  14  82 NW6       30.21R WCI  10

$$

INZ033-034-041-042-049-050-058-059-281200-
EAST CENTRAL INDIANA

CITY           SKY/WX    TMP DP  RH WIND       PRES   REMARKS
MUNCIE         CLEAR     18  13  80 N5        30.19R WCI  11

$$

INZ060-061-067>069-081>083-085>088-281200-
SOUTHWEST INDIANA

CITY           SKY/WX    TMP DP  RH WIND       PRES   REMARKS
EVANSVILLE     CLEAR     26  17  68 CALM      30.24R
HUNTINGBURG *+ CLEAR     21  12  68 N8        30.22R WCI  12
WASHINGTON +   CLEAR     23  12  63 N8        30.24R WCI  13

$$

INZ062-063-066-070>080-084-089>092-281200-
SOUTH CENTRAL AND SOUTHEAST INDIANA

CITY           SKY/WX    TMP DP  RH WIND       PRES   REMARKS
BEDFORD +      CLEAR     19  12  73 N3        30.22
BLOOMINGTON    CLEAR     18  13  80 N6        30.20R WCI  10
NORTH VERNON + CLEAR     21  16  79 N5        30.20R WCI  15
SEYMOUR +      CLEAR     21  14  73 N5        30.23R WCI  15

$$



USA.gov is the U.S. government's official web portal to all federal, state and local government web resources and services.